Wheeling, WV

5:14 PM EDT on April 28, 2017 (GMT -0400)
Wheeling-Ohio County

Weather History for KHLG - July, 2013

Change the Weather History Date:

Friday, July 19, 2013

  Actual Average Record
Temperature  
Mean Temperature 80 °F 72 °F  
Max Temperature 89 °F 82 °F 89 °F (2013)
Min Temperature 70 °F 63 °F 54 °F (1984)
Degree Days  
Heating Degree Days 0 0  
Month to date heating degree days 0 0  
Since 1 June heating degree days 21 38  
Since 1 July heating degree days 0 0  
Cooling Degree Days 15    
Month to date cooling degree days 190  
Year to date cooling degree days 430  
Since 1 June cooling degree days 324  
Growing Degree Days 30 (Base 50)    
Moisture  
Dew Point 71 °F    
Average Humidity 75    
Maximum Humidity 94    
Minimum Humidity 55    
Precipitation  
Precipitation 0.10 in 0.13 in 1.15 in (2011)
Month to date precipitation 3.97 2.42  
Sea Level Pressure  
Sea Level Pressure 29.98 in    
Wind  
Wind Speed 7 mph (SSW)    
Max Wind Speed 21 mph    
Max Gust Speed 33 mph    
Visibility 7 miles    
Events Rain , Thunderstorm    
T = Trace of Precipitation, MM = Missing Value Source: NWS Daily Summary

Daily Weather History Graph

Daily Weather History Graph

Search for Another Location

Airport or City:

Trip Planner

Search our weather history database for the weather conditions in past years. The results will help you decide how hot, cold, wet, or windy it might be!

Date:

Astronomy

Jul. 19, 2013 Rise Set
Actual Time 6:09 AM EDT 8:48 PM EDT
Civil Twilight 5:37 AM EDT 9:19 PM EDT
Nautical Twilight 4:58 AM EDT 9:58 PM EDT
Astronomical Twilight 4:13 AM EDT 10:43 PM EDT
Moon 5:49 PM EDT (7/19) 2:49 AM EDT (7/19)
Length of Visible Light 15h 41m
Length of Day
14h 38m
Waxing Gibbous, 86% of the Moon is Illuminated
Jul 19
Waxing Gibbous
Jul 22
Full
Jul 29
Last Quarter
Aug 6
New
Aug 14
First Quarter

Hourly Weather History & Observations

Time (EDT) Temp. Heat Index Dew Point Humidity Pressure Visibility Wind Dir Wind Speed Gust Speed Precip Events Conditions
12:53 AM 75.9 °F - 73.0 °F 91% 30.05 in 8.0 mi South 4.6 mph - N/A   Clear
1:53 AM 75.9 °F - 73.9 °F 94% 30.05 in 7.0 mi South 5.8 mph - N/A   Clear
2:53 AM 75.0 °F - 73.0 °F 94% 30.04 in 5.0 mi South 3.5 mph - N/A   Clear
3:53 AM 75.0 °F - 73.0 °F 94% 30.03 in 4.0 mi South 4.6 mph - N/A   Clear
4:53 AM 75.0 °F - 73.0 °F 94% 30.02 in 5.0 mi South 5.8 mph - N/A   Clear
5:53 AM 75.0 °F - 72.0 °F 90% 30.02 in 6.0 mi SSW 3.5 mph - N/A   Clear
6:53 AM 75.0 °F - 72.0 °F 90% 30.02 in 4.0 mi South 4.6 mph - N/A   Clear
7:53 AM 75.9 °F - 73.0 °F 91% 30.02 in 6.0 mi South 3.5 mph - N/A   Clear
8:53 AM 78.1 °F - 73.9 °F 87% 30.03 in 7.0 mi SW 9.2 mph - N/A   Clear
9:53 AM 82.0 °F 87.9 °F 73.9 °F 76% 30.03 in 10.0 mi WSW 4.6 mph - N/A   Clear
10:53 AM 84.9 °F 93.3 °F 75.0 °F 72% 30.02 in 10.0 mi SW 8.1 mph - N/A   Partly Cloudy
11:53 AM 86.0 °F 93.0 °F 73.0 °F 65% 30.01 in 10.0 mi West 9.2 mph 16.1 mph N/A   Mostly Cloudy
12:53 PM 84.9 °F 90.7 °F 72.0 °F 65% 29.99 in 10.0 mi West 10.4 mph 17.3 mph N/A   Scattered Clouds
1:09 PM 84.2 °F 89.6 °F 71.6 °F 66% 30.01 in 10.0 mi West 9.2 mph 17.3 mph N/A Thunderstorm Partly Cloudy
1:38 PM 87.8 °F 95.6 °F 73.4 °F 62% 30.00 in 10.0 mi WSW 8.1 mph - N/A   Partly Cloudy
1:53 PM 87.1 °F 93.6 °F 72.0 °F 61% 29.96 in 10.0 mi West 8.1 mph - N/A   Scattered Clouds
2:53 PM 88.0 °F 92.9 °F 70.0 °F 55% 29.94 in 10.0 mi WSW 8.1 mph - N/A   Clear
3:36 PM 87.8 °F 93.8 °F 71.6 °F 58% 29.96 in 10.0 mi SW 8.1 mph - N/A Thunderstorm Scattered Clouds
3:53 PM 86.0 °F 91.5 °F 71.1 °F 61% 29.93 in 2.0 mi SW 10.4 mph 16.1 mph N/A Thunderstorm Unknown
4:00 PM 87.8 °F 93.8 °F 71.6 °F 58% 29.95 in 1.5 mi SSW 8.1 mph - N/A Thunderstorm Unknown
4:09 PM 82.4 °F 88.2 °F 73.4 °F 74% 29.96 in 10.0 mi SSE 12.7 mph 20.7 mph N/A Thunderstorm Partly Cloudy
4:24 PM 80.6 °F 84.6 °F 71.6 °F 74% 29.96 in 10.0 mi SSE 11.5 mph 18.4 mph N/A   Clear
4:40 PM 78.8 °F - 71.6 °F 78% 29.95 in 10.0 mi South 10.4 mph - N/A Thunderstorm Partly Cloudy
4:53 PM 78.1 °F - 71.1 °F 79% 29.94 in 5.0 mi SW 6.9 mph - 0.01 in Thunderstorm Unknown
4:59 PM 77.0 °F - 71.6 °F 83% 29.96 in 1.8 mi SSW 10.4 mph - 0.03 in Rain , Thunderstorm Heavy Thunderstorms and Rain
5:13 PM 75.2 °F - 73.4 °F 94% 29.95 in 3.0 mi South 8.1 mph - 0.08 in Rain , Thunderstorm Light Rain
5:53 PM 73.9 °F - 69.1 °F 85% 29.99 in 8.0 mi West 12.7 mph 21.9 mph 0.08 in Thunderstorm Partly Cloudy
6:43 PM 71.6 °F - 68.0 °F 88% 29.98 in 9.0 mi South 4.6 mph - 0.00 in Rain Light Rain
6:53 PM 72.0 °F - 66.9 °F 84% 29.96 in 8.0 mi Calm Calm - 0.01 in Rain , Thunderstorm Light Rain
7:14 PM 71.6 °F - 68.0 °F 88% 29.95 in 10.0 mi SSE 5.8 mph - 0.00 in Rain Light Rain
7:53 PM 72.0 °F - 68.0 °F 87% 29.91 in 10.0 mi South 9.2 mph - 0.00 in Rain Light Rain
8:53 PM 71.1 °F - 69.1 °F 93% 29.90 in 6.0 mi SSW 3.5 mph - N/A   Clear
9:53 PM 71.1 °F - 68.0 °F 90% 29.91 in 9.0 mi SW 10.4 mph - N/A   Clear
10:53 PM 71.1 °F - 69.1 °F 93% 29.92 in 7.0 mi SSW 9.2 mph - N/A   Clear
11:53 PM 71.1 °F - 69.1 °F 93% 29.91 in 7.0 mi SSW 8.1 mph - N/A   Clear